Location: Sternwarte ZA, Rosenfeld-Brittheim
(48.2889°N, 8.6789°E)
Time: 19:44:36
(UTC+01:00)

ISS - Pass Details

Date: 10 December 2017
Orbit: 402 x 407 km, 51.6° (Epoch: 11 December)

Event Time Altitude Azimuth Distance (km) Brightness Sun altitude
Rises 17:25:07 0° 284° (WNW) 2,331 0.9 -8.7°
Reaches altitude 10° 17:27:15 10° 291° (WNW) 1,470 -0.3 -9.0°
Maximum altitude 17:30:27 46° 6° (N) 556 -3.4 -9.5°
Enters shadow 17:33:03 14° 78° (ENE) 1,238 -2.0 -9.9°
